Weather History for KY19 - February, 2013

Change the Weather History Date:

Sunday, February 17, 2013

  Actual Average (KBIS) Record (KBIS)
Temperature  
Mean Temperature 34 °F 19 °F  
Max Temperature 41 °F 29 °F 59 °F (1954)
Min Temperature 28 °F 9 °F -30 °F (1903)
Degree Days  
Heating Degree Days 30 46  
Month to date heating degree days 828  
Since 1 July heating degree days 5946  
Cooling Degree Days 0 0  
Month to date cooling degree days 0  
Year to date cooling degree days 0  
Moisture  
Dew Point 32 °F    
Average Humidity 92    
Maximum Humidity 100    
Minimum Humidity 70    
Precipitation  
Precipitation 0.04 in 0.02 in 0.25 in (1891)
Month to date precipitation 0.26  
Year to date precipitation 0.69  
Snow  
Snow 0.00 in 0.30 in 2.50 in (1931)
Month to date snowfall 4.5  
Since 1 July snowfall 33.9  
Snow Depth -    
Sea Level Pressure  
Sea Level Pressure 29.56 in    
Wind  
Wind Speed 13 mph (WSW)    
Max Wind Speed 26 mph    
Max Gust Speed 34 mph    
Visibility 10 miles    
Events Rain , Snow    
T = Trace of Precipitation, MM = Missing Value Source: NWS Daily Summary

Daily Weather History Graph

Daily Weather History Graph

Search for Another Location

Airport or City:

Trip Planner

Search our weather history database for the weather conditions in past years. The results will help you decide how hot, cold, wet, or windy it might be!

Date:

Astronomy

Feb. 17, 2013 Rise Set
Actual Time 7:43 AM CST 6:11 PM CST
Civil Twilight 7:12 AM CST 6:43 PM CST
Nautical Twilight 6:37 AM CST 7:18 PM CST
Astronomical Twilight 6:02 AM CST 7:53 PM CST
Moon 11:08 AM CST (2/17) 1:38 AM CST (2/17)
Length of Visible Light 11h 30m
Length of Day
10h 28m
Waxing Crescent, 49% of the Moon is Illuminated
Feb 17
Waxing Crescent
Feb 17
First Quarter
Feb 25
Full
Mar 4
Last Quarter
Mar 11
New

Hourly Weather History & Observations

Time (CST) Temp. Windchill Dew Point Humidity Pressure Visibility Wind Dir Wind Speed Gust Speed Precip Events Conditions
12:15 AM 28.4 °F 18.0 °F 28.4 °F 100% 29.76 in 10.0 mi South 12.7 mph - N/A   Clear
12:35 AM 28.4 °F 18.5 °F 28.4 °F 100% 29.75 in 10.0 mi South 11.5 mph - N/A   Clear
12:55 AM 28.4 °F 18.0 °F 28.4 °F 100% 29.74 in 10.0 mi South 12.7 mph - N/A   Clear
1:15 AM 28.4 °F 18.0 °F 28.4 °F 100% 29.74 in 10.0 mi South 12.7 mph - N/A   Clear
1:35 AM 30.2 °F 20.2 °F 30.2 °F 100% 29.74 in 10.0 mi SSW 12.7 mph - N/A   Partly Cloudy
1:55 AM 30.2 °F 20.8 °F 30.2 °F 100% 29.73 in 10.0 mi SSW 11.5 mph 17.3 mph N/A   Partly Cloudy
2:15 AM 28.4 °F 19.1 °F 28.4 °F 100% 29.72 in 10.0 mi South 10.4 mph - N/A   Clear
2:35 AM 28.4 °F 19.1 °F 28.4 °F 100% 29.71 in 10.0 mi South 10.4 mph - N/A   Clear
2:55 AM 28.4 °F 18.5 °F 28.4 °F 100% 29.70 in 10.0 mi South 11.5 mph - N/A   Clear
3:15 AM 28.4 °F 19.1 °F 28.4 °F 100% 29.69 in 10.0 mi South 10.4 mph - N/A   Clear
3:35 AM 28.4 °F 18.5 °F 28.4 °F 100% 29.67 in 10.0 mi South 11.5 mph - N/A   Clear
3:55 AM 28.4 °F 18.0 °F 28.4 °F 100% 29.66 in 10.0 mi South 12.7 mph - N/A   Clear
4:15 AM 28.4 °F 18.5 °F 28.4 °F 100% 29.64 in 10.0 mi South 11.5 mph - N/A   Clear
4:35 AM 28.4 °F 16.6 °F 28.4 °F 100% 29.63 in 10.0 mi South 16.1 mph - N/A   Clear
4:55 AM 28.4 °F 17.5 °F 28.4 °F 100% 29.63 in 10.0 mi SSW 13.8 mph - N/A   Clear
5:15 AM 28.4 °F 18.0 °F 28.4 °F 100% 29.62 in 10.0 mi SSW 12.7 mph - N/A   Scattered Clouds
5:35 AM 28.4 °F 18.0 °F 28.4 °F 100% 29.61 in 10.0 mi South 12.7 mph - N/A   Partly Cloudy
5:55 AM 30.2 °F 20.2 °F 30.2 °F 100% 29.60 in 10.0 mi South 12.7 mph - N/A   Clear
6:15 AM 30.2 °F 19.8 °F 30.2 °F 100% 29.58 in 10.0 mi South 13.8 mph - N/A   Clear
6:35 AM 32.0 °F 21.6 °F 32.0 °F 100% 29.58 in 10.0 mi SSW 15.0 mph - N/A   Clear
6:55 AM 32.0 °F 22.5 °F 32.0 °F 100% 29.57 in 10.0 mi SSW 12.7 mph - N/A   Clear
7:15 AM 30.2 °F 20.2 °F 30.2 °F 100% 29.57 in 10.0 mi SSW 12.7 mph - N/A   Clear
7:35 AM 30.2 °F 20.8 °F 30.2 °F 100% 29.56 in 10.0 mi SSW 11.5 mph - N/A   Clear
7:55 AM 30.2 °F 20.8 °F 30.2 °F 100% 29.55 in 10.0 mi South 11.5 mph - N/A   Clear
8:15 AM 30.2 °F 20.2 °F 30.2 °F 100% 29.55 in 10.0 mi SSW 12.7 mph - N/A   Clear
8:35 AM 32.0 °F 22.5 °F 30.2 °F 93% 29.54 in 10.0 mi SSW 12.7 mph - N/A   Clear
8:55 AM 32.0 °F 24.8 °F 30.2 °F 93% 29.54 in 10.0 mi SSW 8.1 mph - N/A   Clear
9:15 AM 32.0 °F 23.6 °F 30.2 °F 93% 29.54 in 10.0 mi SSW 10.4 mph - N/A   Clear
9:35 AM 32.0 °F 22.1 °F 30.2 °F 93% 29.52 in 10.0 mi SW 13.8 mph - N/A   Clear
9:55 AM 33.8 °F 25.3 °F 32.0 °F 93% 29.52 in 10.0 mi SSW 11.5 mph - N/A   Clear
10:15 AM 35.6 °F 29.2 °F 32.0 °F 87% 29.53 in 10.0 mi SW 8.1 mph - N/A   Clear
10:35 AM 35.6 °F 28.6 °F 32.0 °F 87% 29.52 in 10.0 mi SW 9.2 mph - N/A   Mostly Cloudy
10:55 AM 35.6 °F 28.6 °F 32.0 °F 87% 29.51 in 10.0 mi SW 9.2 mph - N/A   Mostly Cloudy
11:15 AM 37.4 °F 29.8 °F 32.0 °F 81% 29.51 in 10.0 mi SW 11.5 mph - N/A   Mostly Cloudy
11:35 AM 39.2 °F 32.5 °F 32.0 °F 75% 29.50 in 10.0 mi SW 10.4 mph - N/A   Mostly Cloudy
11:55 AM 39.2 °F 33.6 °F 32.0 °F 75% 29.49 in 10.0 mi SW 8.1 mph - N/A   Scattered Clouds
12:15 PM 41.0 °F 36.4 °F 32.0 °F 70% 29.49 in 10.0 mi SW 6.9 mph - N/A   Partly Cloudy
1:15 PM 41.0 °F 34.7 °F 32.0 °F 70% 29.48 in 10.0 mi West 10.4 mph - N/A   Mostly Cloudy
1:35 PM 41.0 °F 35.2 °F 32.0 °F 70% 29.47 in 10.0 mi West 9.2 mph - N/A   Mostly Cloudy
1:55 PM 41.0 °F 35.8 °F 33.8 °F 76% 29.46 in 10.0 mi West 8.1 mph - N/A   Mostly Cloudy
2:15 PM 41.0 °F 35.8 °F 33.8 °F 76% 29.46 in 10.0 mi WNW 8.1 mph - N/A   Mostly Cloudy
2:35 PM 41.0 °F 33.1 °F 32.0 °F 70% 29.46 in 10.0 mi WNW 15.0 mph 20.7 mph N/A   Mostly Cloudy
2:55 PM 39.2 °F 30.8 °F 33.8 °F 81% 29.46 in 10.0 mi WNW 15.0 mph - N/A   Mostly Cloudy
3:15 PM 39.2 °F 32.0 °F 33.8 °F 81% 29.47 in 10.0 mi WNW 11.5 mph - N/A   Mostly Cloudy
3:35 PM 41.0 °F 34.7 °F 33.8 °F 76% 29.47 in 10.0 mi West 10.4 mph - N/A   Mostly Cloudy
3:55 PM 39.2 °F 31.2 °F 33.8 °F 81% 29.47 in 10.0 mi WNW 13.8 mph - N/A   Mostly Cloudy
4:15 PM 39.2 °F 30.2 °F 33.8 °F 81% 29.47 in 10.0 mi WNW 17.3 mph - N/A   Mostly Cloudy
4:35 PM 39.2 °F 30.5 °F 33.8 °F 81% 29.48 in 10.0 mi WNW 16.1 mph - N/A   Overcast
4:55 PM 39.2 °F 31.6 °F 33.8 °F 81% 29.48 in 10.0 mi NW 12.7 mph 17.3 mph N/A   Overcast
5:15 PM 39.2 °F 31.6 °F 32.0 °F 75% 29.48 in 10.0 mi NW 12.7 mph - N/A   Overcast
5:35 PM 37.4 °F 29.3 °F 33.8 °F 87% 29.50 in 10.0 mi WNW 12.7 mph - N/A   Overcast
5:55 PM 37.4 °F 30.3 °F 33.8 °F 87% 29.50 in 10.0 mi West 10.4 mph - N/A   Mostly Cloudy
6:15 PM 37.4 °F 29.8 °F 35.6 °F 93% 29.51 in 10.0 mi West 11.5 mph 17.3 mph N/A   Overcast
6:35 PM 37.4 °F 28.5 °F 35.6 °F 93% 29.51 in 10.0 mi WNW 15.0 mph 21.9 mph N/A   Overcast
6:55 PM 35.6 °F 26.6 °F 35.6 °F 100% 29.51 in 8.0 mi WNW 13.8 mph - N/A Rain Light Rain
7:15 PM 35.6 °F 26.6 °F 35.6 °F 100% 29.51 in 10.0 mi WNW 13.8 mph 19.6 mph N/A   Overcast
7:35 PM 35.6 °F 25.9 °F 35.6 °F 100% 29.52 in 10.0 mi WNW 16.1 mph 20.7 mph N/A   Overcast
7:55 PM 35.6 °F 25.5 °F 33.8 °F 93% 29.52 in 10.0 mi West 17.3 mph - N/A   Overcast
8:15 PM 35.6 °F 25.2 °F 33.8 °F 93% 29.52 in 10.0 mi West 18.4 mph 24.2 mph N/A   Overcast
8:35 PM 33.8 °F 22.5 °F 33.8 °F 100% 29.52 in 10.0 mi WNW 19.6 mph 24.2 mph N/A   Overcast
8:55 PM 33.8 °F 22.5 °F 33.8 °F 100% 29.53 in 10.0 mi WNW 19.6 mph 24.2 mph N/A   Overcast
9:15 PM 33.8 °F 22.8 °F 33.8 °F 100% 29.53 in 10.0 mi WNW 18.4 mph 21.9 mph N/A   Overcast
9:35 PM 32.0 °F 19.2 °F 32.0 °F 100% 29.53 in 10.0 mi WNW 23.0 mph 29.9 mph N/A   Overcast
9:55 PM 32.0 °F 20.8 °F 32.0 °F 100% 29.54 in 8.0 mi NW 17.3 mph 29.9 mph N/A   Overcast
10:15 PM 32.0 °F 19.8 °F 32.0 °F 100% 29.54 in 8.0 mi NW 20.7 mph 27.6 mph N/A   Overcast
10:35 PM 32.0 °F 20.5 °F 32.0 °F 100% 29.55 in 10.0 mi NW 18.4 mph 27.6 mph N/A   Overcast
10:55 PM 32.0 °F 19.2 °F 32.0 °F 100% 29.55 in 10.0 mi NW 23.0 mph 31.1 mph N/A   Overcast
11:15 PM 32.0 °F 18.4 °F 32.0 °F 100% 29.56 in 10.0 mi NW 26.5 mph 34.5 mph N/A   Overcast
11:35 PM 32.0 °F 19.8 °F 32.0 °F 100% 29.57 in 10.0 mi NW 20.7 mph 31.1 mph N/A Rain Light Rain
11:55 PM 32.0 °F 20.5 °F 32.0 °F 100% 29.59 in 3.0 mi NW 18.4 mph 29.9 mph 0.04 in Snow Light Snow